Alpena, MI

10:47 AM EDT on April 23, 2017 (GMT -0400)
Alpena County Regional

Weather History for KAPN - November, 2011

Change the Weather History Date:

Wednesday, November 16, 2011

  Actual Average Record
Temperature  
Mean Temperature 38 °F 36 °F  
Max Temperature 45 °F 43 °F 69 °F (1931)
Min Temperature 30 °F 28 °F 0 °F (1933)
Degree Days  
Heating Degree Days 27 29  
Month to date heating degree days 351 429  
Since 1 July heating degree days 1140 1373  
Moisture  
Dew Point 26 °F    
Average Humidity 60    
Maximum Humidity 76    
Minimum Humidity 43    
Precipitation  
Precipitation 0.00 in 0.07 in 0.81 in (1961)
Month to date precipitation 1.61 1.13  
Year to date precipitation 34.94 25.44  
Snow  
Snow 0.00 in 0.30 in 9.90 in (1989)
Month to date snowfall 0.1 2.7  
Since 1 July snowfall 0.1 3.1  
Snow Depth 0.00 in    
Sea Level Pressure  
Sea Level Pressure 29.83 in    
Wind  
Wind Speed 8 mph (WSW)    
Max Wind Speed 21 mph    
Max Gust Speed 30 mph    
Visibility 10 miles    
Events      
T = Trace of Precipitation, MM = Missing Value Source: NWS Daily Summary

Daily Weather History Graph

Daily Weather History Graph

Search for Another Location

Airport or City:

Trip Planner

Search our weather history database for the weather conditions in past years. The results will help you decide how hot, cold, wet, or windy it might be!

Date:

Astronomy

Nov. 16, 2011 Rise Set
Actual Time 7:33 AM EST 5:04 PM EST
Civil Twilight 7:01 AM EST 5:36 PM EST
Nautical Twilight 6:25 AM EST 6:11 PM EST
Astronomical Twilight 5:50 AM EST 6:46 PM EST
Moon 10:19 PM EST (11/16) 12:07 PM EST (11/16)
Length of Visible Light 10h 35m
Length of Day
9h 31m
Waning Gibbous, 70% of the Moon is Illuminated
Nov 16
Waning Gibbous
Nov 18
Last Quarter
Nov 25
New
Dec 2
First Quarter
Dec 10
Full

Hourly Weather History & Observations

Time (EST) Temp. Windchill Dew Point Humidity Pressure Visibility Wind Dir Wind Speed Gust Speed Precip Events Conditions
12:54 AM 45.0 °F 41.2 °F 35.1 °F 68% 29.69 in 10.0 mi WSW 6.9 mph - N/A   Clear
1:54 AM 44.1 °F 39.5 °F 35.1 °F 71% 29.69 in 10.0 mi WSW 8.1 mph - N/A   Clear
2:54 AM 43.0 °F 38.8 °F 35.1 °F 74% 29.70 in 10.0 mi WSW 6.9 mph - N/A   Clear
3:54 AM 42.1 °F 38.4 °F 34.0 °F 73% 29.70 in 10.0 mi WSW 5.8 mph - N/A   Clear
4:54 AM 41.0 °F 35.2 °F 33.1 °F 73% 29.73 in 10.0 mi WNW 9.2 mph - N/A   Clear
5:54 AM 37.9 °F 32.7 °F 30.0 °F 73% 29.74 in 10.0 mi WNW 6.9 mph - N/A   Clear
6:54 AM 36.0 °F 33.3 °F 28.9 °F 76% 29.75 in 10.0 mi WSW 3.5 mph - N/A   Clear
7:54 AM 36.0 °F 29.6 °F 27.0 °F 70% 29.78 in 10.0 mi WSW 8.1 mph - N/A   Clear
8:54 AM 37.0 °F 31.6 °F 25.0 °F 62% 29.80 in 10.0 mi West 6.9 mph - N/A   Partly Cloudy
9:54 AM 37.9 °F 33.5 °F 25.0 °F 60% 29.82 in 10.0 mi Variable 5.8 mph 16.1 mph N/A   Scattered Clouds
10:54 AM 39.9 °F 32.1 °F 23.0 °F 51% 29.82 in 10.0 mi West 13.8 mph 23.0 mph N/A   Partly Cloudy
11:54 AM 42.1 °F 34.9 °F 21.9 °F 45% 29.83 in 10.0 mi West 13.8 mph 27.6 mph N/A   Mostly Cloudy
12:54 PM 42.1 °F 36.1 °F 23.0 °F 47% 29.82 in 10.0 mi West 10.4 mph 23.0 mph N/A   Scattered Clouds
1:54 PM 41.0 °F 33.9 °F 23.0 °F 49% 29.84 in 10.0 mi West 12.7 mph 24.2 mph N/A   Mostly Cloudy
2:54 PM 39.9 °F 34.5 °F 23.0 °F 51% 29.85 in 10.0 mi West 8.1 mph 21.9 mph N/A   Mostly Cloudy
3:54 PM 37.9 °F 31.5 °F 24.1 °F 57% 29.88 in 10.0 mi West 9.2 mph 20.7 mph N/A   Mostly Cloudy
4:54 PM 37.9 °F 32.1 °F 24.1 °F 57% 29.90 in 10.0 mi West 8.1 mph 16.1 mph N/A   Overcast
5:54 PM 36.0 °F 27.5 °F 23.0 °F 59% 29.92 in 10.0 mi West 12.7 mph 17.3 mph N/A   Overcast
6:54 PM 35.1 °F 29.3 °F 23.0 °F 61% 29.94 in 10.0 mi West 6.9 mph - N/A   Overcast
7:54 PM 33.1 °F 26.9 °F 24.1 °F 70% 29.95 in 10.0 mi WSW 6.9 mph - N/A   Mostly Cloudy
8:54 PM 32.0 °F 26.4 °F 24.1 °F 73% 29.96 in 10.0 mi WSW 5.8 mph - N/A   Partly Cloudy
9:54 PM 30.9 °F 27.5 °F 21.9 °F 69% 29.96 in 10.0 mi WSW 3.5 mph - N/A   Scattered Clouds
10:54 PM 30.0 °F 26.5 °F 21.9 °F 72% 29.96 in 10.0 mi SW 3.5 mph - N/A   Clear
11:54 PM 30.9 °F 26.2 °F 21.0 °F 67% 29.97 in 10.0 mi West 4.6 mph - N/A   Scattered Clouds